CAPE
0 0 0 0 0 0 0 0 0 0 0 0 212 1143 892 950 896 903 857 792 578 1524 2279 2518 2253 1943 1627 1140 878 873 825 635 567 482 235 43 10 26 78 253 228 224 234
0 0 0 0 0 0 0 0 0 0 0 0 0 1 615 895 878 830 882 849 717 1201 1795 2008 2247 2110 1942 1401 848 783 814 564 512 438 155 5 0 0 1 172 167 185 228
0 0 0 0 0 0 0 0 0 0 0 0 0 0 38 278 783 779 749 791 760 926 1500 1537 1748 1944 1914 1642 984 751 760 475 418 452 155 4 3 0 0 75 99 134 191
0 0 0 0 0 0 0 0 0 0 0 0 0 0 0 12 108 565 741 703 651 564 930 1306 1502 1579 1595 1588 1322 990 925 499 342 454 383 19 1 45 98 105 86 109 156
0 0 0 0 0 0 0 0 0 0 0 0 0 0 0 3 17 144 382 654 643 569 576 791 1190 1491 1504 1367 1385 1265 1209 852 482 449 491 286 189 179 170 107 79 125 150
0 0 0 0 0 0 0 0 0 0 0 0 0 0 0 0 0 2 23 289 535 571 560 574 611 812 1341 1303 1232 1279 1428 1257 902 698 606 499 276 181 138 78 83 131 159
0 0 0 0 0 0 0 0 0 0 0 0 0 0 0 0 0 0 0 0 71 535 535 583 565 545 673 1155 1050 1280 1578 1545 1186 837 605 498 320 139 83 54 60 93 136
0 0 0 0 0 0 0 0 0 0 0 0 0 0 0 0 0 0 0 0 8 227 503 547 486 379 412 517 792 1067 1306 1453 1328 940 580 392 254 98 52 39 49 63 82
0 0 0 0 0 0 0 0 0 0 0 0 0 0 0 0 0 0 0 0 18 150 317 390 479 417 335 284 542 840 1023 1032 980 941 624 388 259 111 54 53 41 40 33
0 0 0 0 0 0 0 0 0 0 0 0 0 0 0 0 0 0 0 7 98 151 247 221 408 268 221 106 243 510 740 907 902 839 668 501 331 191 92 58 47 50 33
0 0 0 0 0 0 0 0 0 0 0 0 0 0 0 0 0 0 0 0 5 8 37 241 343 335 133 42 124 154 385 681 802 787 705 549 396 259 150 89 61 56 60
0 0 0 0 0 0 0 0 0 0 0 0 0 0 0 0 0 0 0 0 9 1 5 61 251 480 358 161 6 66 450 372 507 590 655 522 410 288 209 155 122 108 87
0 0 0 0 0 0 0 0 0 0 0 0 0 0 0 0 0 0 0 0 0 2 7 69 194 368 370 111 55 86 522 548 366 469 539 488 440 358 256 182 161 173 161
0 0 0 0 0 0 0 0 0 0 0 0 0 0 1 0 0 0 0 0 0 0 19 7 35 140 285 306 81 121 350 480 483 390 319 383 368 384 315 239 190 145 115
0 0 0 0 0 0 0 0 0 0 0 0 0 0 0 3 4 2 1 0 0 23 36 21 4 62 55 126 188 210 120 226 272 324 308 278 195 232 330 276 240 188 164
0 0 0 0 0 0 0 0 0 0 0 0 0 0 0 0 2 4 4 2 0 2 0 12 14 37 25 137 166 163 76 98 64 181 245 260 211 167 132 173 119 131 114
0 0 0 0 0 0 0 0 0 0 0 0 0 0 0 2 2 0 3 1 3 0 9 36 5 3 43 8 56 42 23 15 17 26 100 273 254 216 181 135 122 125 104
0 0 0 0 0 0 0 0 0 0 0 0 0 0 0 0 0 0 0 0 0 3 2 11 18 1 4 0 2 0 16 1 0 2 14 22 152 48 154 144 134 152 177
0 0 0 0 0 0 0 0 0 0 0 0 0 0 0 0 0 1 2 1 5 5 12 14 14 10 15 0 0 5 3 0 0 0 0 0 22 75 125 187 114 155 169
0 0 0 0 0 0 0 0 0 0 0 0 0 0 0 0 0 0 0 0 0 0 5 8 5 3 1 1 0 0 31 1 5 10 5 4 4 41 141 143 145 124 145
0 0 0 0 0 0 0 0 0 0 0 0 0 0 0 0 0 0 0 0 0 0 28 10 10 6 0 1 0 0 0 0 0 0 0 5 1 4 17 69 21 94 65
0 0 0 0 0 0 0 0 0 0 0 0 0 0 0 0 0 0 0 0 0 0 0 0 0 0 0 0 0 0 0 0 0 0 0 0 0 0 1 1 5 1 7
0 0 0 0 0 0 0 0 0 0 0 0 0 0 0 0 0 0 0 0 0 0 0 0 0 0 0 0 0 0 0 0 0 0 0 0 0 0 0 0 0 0 0
0 0 0 0 0 0 0 0 0 0 0 0 0 0 0 0 0 0 0 0 0 0 0 0 0 0 0 0 0 0 0 0 0 0 0 0 0 0 0 0 0 0 0
0 0 0 0 0 0 0 0 0 0 0 0 0 0 0 0 0 0 0 0 0 0 0 0 0 0 0 0 0 0 0 0 0 0 0 0 0 0 0 0 0 0 0
0 0 0 0 0 0 0 0 0 0 0 0 0 0 0 0 0 0 0 0 0 0 0 0 0 0 0 0 0 0 0 0 0 0 0 0 0 0 0 0 0 0 0
CIN
-0 -0 -0 -0 -0 -0 -0 -0 -0 -0 -0 -0 -184 -0 -0 -1 -4 -15 -31 -25 -71 -95 -47 -43 -47 -34 -55 -62 -39 -21 -16 -25 -20 -16 -33 -72 -52 -39 -51 -37 -37 -34 -37
-0 -0 -0 -0 -0 -0 -0 -0 -0 -0 -0 -0 -0 -25 -23 -0 -4 -8 -15 -37 -24 -107 -79 -56 -41 -30 -20 -51 -48 -29 -13 -28 -24 -30 -51 -157 -0 -0 -32 -48 -62 -55 -40
-0 -0 -0 -0 -0 -0 -0 -0 -0 -0 -0 -0 -0 -0 -358 -113 -1 -11 -23 -14 -17 -108 -95 -77 -63 -57 -29 -33 -48 -33 -17 -34 -40 -29 -57 -158 -104 -0 -0 -69 -63 -46 -35
-0 -0 -0 -0 -0 -0 -0 -0 -0 -0 -0 -0 -0 -0 -0 -2 -228 -18 -6 -30 -22 -24 -71 -83 -82 -80 -66 -38 -31 -16 -9 -36 -50 -29 -37 -132 -77 -102 -70 -56 -56 -50 -35
-0 -0 -0 -0 -0 -0 -0 -0 -0 -0 -0 -0 -0 -0 -0 -2 -4 -193 -30 -27 -31 -28 -31 -77 -87 -72 -63 -54 -37 -7 -0 -6 -24 -27 -20 -48 -49 -56 -64 -48 -54 -38 -34
-0 -0 -0 -0 -0 -0 -0 -0 -0 -0 -0 -0 -0 -0 -0 -0 -0 -0 -79 -65 -29 -26 -21 -16 -41 -101 -74 -60 -47 -18 -0 -0 -2 -4 -10 -17 -45 -51 -61 -65 -58 -37 -28
-0 -0 -0 -0 -0 -0 -0 -0 -0 -0 -0 -0 -0 -0 -0 -0 -0 -0 -0 -0 -187 -11 -29 -18 -12 -6 -99 -54 -69 -22 -0 -0 -0 -0 -8 -22 -41 -70 -65 -67 -71 -43 -28
-0 -0 -0 -0 -0 -0 -0 -0 -0 -0 -0 -0 -0 -0 -0 -0 -0 -0 -0 -0 -292 -53 -20 -38 -17 -26 -1 -106 -68 -34 -9 -1 -0 -0 -13 -33 -48 -91 -137 -93 -73 -54 -34
-0 -0 -0 -0 -0 -0 -0 -0 -0 -0 -0 -0 -0 -0 -0 -0 -0 -0 -0 -0 -220 -92 -41 -39 -26 -12 -13 -52 -121 -58 -22 -25 -9 -4 -13 -38 -54 -73 -86 -94 -78 -68 -49
-0 -0 -0 -0 -0 -0 -0 -0 -0 -0 -0 -0 -0 -0 -0 -0 -0 -0 -0 -0 -123 -87 -28 -46 -48 -22 -9 -0 -4 -93 -61 -20 -23 -18 -29 -36 -50 -59 -62 -70 -80 -67 -62
-0 -0 -0 -0 -0 -0 -0 -0 -0 -0 -0 -0 -0 -0 -0 -0 -0 -0 -0 -0 -0 -0 -58 -13 -20 -16 -37 -122 -31 -1 -48 -84 -41 -27 -32 -36 -41 -51 -57 -63 -60 -55 -43
-0 -0 -0 -0 -0 -0 -0 -0 -0 -0 -0 -0 -0 -0 -0 -0 -0 -0 -0 -0 -0 -0 -0 -86 -21 -4 -24 -1 -38 -15 -17 -19 -90 -63 -44 -48 -53 -54 -50 -50 -49 -41 -37
-0 -0 -0 -0 -0 -0 -0 -0 -0 -0 -0 -0 -0 -0 -0 -0 -0 -0 -0 -0 -0 -0 -2 -27 -3 -0 -0 -6 -2 -7 -1 -20 -31 -75 -55 -59 -60 -59 -66 -64 -51 -40 -36
-0 -0 -0 -0 -0 -0 -0 -0 -0 -0 -0 -0 -0 -0 -0 -0 -0 -0 -0 -0 -0 -0 -4 -3 -2 -0 -0 -0 -10 -14 -0 -17 -27 -12 -28 -53 -65 -64 -70 -75 -67 -70 -72
-0 -0 -0 -0 -0 -0 -0 -0 -0 -0 -0 -0 -0 -0 -0 -0 -0 -0 -0 -0 -0 -0 -2 -1 -0 -0 -1 -0 -0 -0 -3 -26 -14 -13 -35 -20 -12 -52 -64 -67 -82 -73 -77
-0 -0 -0 -0 -0 -0 -0 -0 -0 -0 -0 -0 -0 -0 -0 -0 -0 -0 -0 -0 -0 -0 -0 -0 -0 -0 -1 -1 -0 -0 -21 -7 -2 -11 -24 -29 -11 -17 -20 -27 -28 -37 -41
-0 -0 -0 -0 -0 -0 -0 -0 -0 -0 -0 -0 -0 -0 -0 -0 -0 -0 -0 -3 -0 -0 -0 -0 -0 -1 -8 -0 -12 -0 -3 -0 -4 -26 -15 -8 -8 -5 -2 -2 -4 -6 -6
-0 -0 -0 -0 -0 -0 -0 -0 -0 -0 -0 -0 -0 -0 -0 -0 -0 -0 -0 -0 -0 -1 -0 -0 -0 -2 -8 -0 -0 -0 -14 -3 -0 -26 -17 -8 -0 -63 -2 -0 -0 -0 -0
-0 -0 -0 -0 -0 -0 -0 -0 -0 -0 -0 -0 -0 -0 -0 -0 -0 -0 -0 -0 -0 -0 -0 -0 -0 -3 -0 -0 -0 -0 -4 -0 -0 -0 -0 -0 -3 -0 -0 -0 -0 -0 -0
-0 -0 -0 -0 -0 -0 -0 -0 -0 -0 -0 -0 -0 -0 -0 -0 -0 -0 -0 -0 -0 -0 -0 -0 -11 -0 -0 -0 -0 -0 -2 -0 -9 -0 -0 -0 -0 -0 -0 -0 -0 -0 -0
-0 -0 -0 -0 -0 -0 -0 -0 -0 -0 -0 -0 -0 -0 -0 -0 -0 -0 -0 -0 -0 -0 -0 -0 -0 -0 -0 -0 -0 -0 -0 -0 -0 -0 -0 -0 -0 -0 -2 -1 -0 -0 -0
-0 -0 -0 -0 -0 -0 -0 -0 -0 -0 -0 -0 -0 -0 -0 -0 -0 -0 -0 -0 -0 -0 -0 -0 -0 -26 -0 -0 -0 -0 -0 -0 -0 -0 -0 -0 -0 -0 -0 -0 -0 -0 -0
-0 -0 -0 -0 -0 -0 -0 -0 -0 -0 -0 -0 -0 -0 -0 -0 -0 -0 -0 -0 -0 -0 -0 -0 -0 -0 -0 -0 -0 -0 -0 -0 -0 -0 -0 -0 -0 -0 -0 -0 -0 -0 -0
-0 -0 -0 -0 -0 -0 -0 -0 -0 -0 -0 -0 -0 -0 -0 -0 -0 -0 -0 -0 -0 -0 -0 -0 -0 -0 -0 -0 -0 -0 -0 -0 -0 -0 -0 -0 -0 -0 -0 -0 -0 -0 -0
-0 -0 -0 -0 -0 -0 -0 -0 -0 -0 -0 -0 -0 -0 -0 -0 -0 -0 -0 -0 -0 -0 -0 -0 -0 -0 -0 -0 -0 -0 -0 -0 -0 -0 -0 -0 -0 -0 -0 -0 -0 -0 -0
-0 -0 -0 -0 -0 -0 -0 -0 -0 -0 -0 -0 -0 -0 -0 -0 -0 -0 -0 -0 -0 -0 -0 -0 -0 -0 -0 -0 -0 -0 -0 -0 -0 -0 -0 -0 -0 -0 -0 -0 -0 -0 -0
Wind_Speed
nan nan nan nan nan nan nan nan nan nan nan nan 25 26 25 24 25 27 25 30 32 26 29 35 35 29 28 28 27 26 27 30 29 28 23 nan nan nan nan 10 5 10 12
nan nan nan nan nan nan nan nan nan nan nan nan nan nan 27 29 26 29 29 21 30 32 29 36 36 32 30 30 27 28 26 28 27 27 22 nan nan nan nan 12 10 9 13
nan nan nan nan nan nan nan nan nan nan nan nan nan nan nan 30 31 30 30 32 29 31 36 32 36 37 32 33 30 27 28 27 26 26 23 nan nan nan nan nan nan 11 16
nan nan nan nan nan nan nan nan nan nan nan nan nan nan nan nan 33 34 33 37 35 31 27 33 32 37 36 33 33 30 28 29 27 25 25 nan nan nan nan 16 nan 17 19
nan nan nan nan nan nan nan nan nan nan nan nan nan nan nan nan nan 40 38 36 41 36 35 27 32 35 33 32 34 32 28 28 27 25 23 23 20 19 21 20 nan 19 18
nan nan nan nan nan nan nan nan nan nan nan nan nan nan nan nan nan nan nan 43 41 43 35 34 32 35 37 35 35 33 30 27 27 26 22 22 23 20 20 nan nan 23 21
nan nan nan nan nan nan nan nan nan nan nan nan nan nan nan nan nan nan nan nan nan 41 44 37 40 37 39 35 36 34 29 28 25 25 25 22 22 23 nan nan nan nan 23
nan nan nan nan nan nan nan nan nan nan nan nan nan nan nan nan nan nan nan nan nan 44 44 43 40 41 37 42 40 36 32 30 28 22 25 27 24 nan nan nan nan nan nan
nan nan nan nan nan nan nan nan nan nan nan nan nan nan nan nan nan nan nan nan nan 47 49 47 49 44 41 46 47 41 35 35 34 27 24 28 29 27 nan nan nan nan nan
nan nan nan nan nan nan nan nan nan nan nan nan nan nan nan nan nan nan nan nan nan 51 52 55 53 52 58 42 72 45 41 40 35 29 28 28 30 30 nan nan nan nan nan
nan nan nan nan nan nan nan nan nan nan nan nan nan nan nan nan nan nan nan nan nan nan nan 57 58 62 57 nan 52 39 37 38 34 36 31 27 29 31 31 nan nan nan nan
nan nan nan nan nan nan nan nan nan nan nan nan nan nan nan nan nan nan nan nan nan nan nan nan 65 65 58 55 nan nan 34 28 25 36 39 34 30 33 31 32 30 32 nan
nan nan nan nan nan nan nan nan nan nan nan nan nan nan nan nan nan nan nan nan nan nan nan nan 71 66 62 61 nan nan 40 33 28 29 34 36 36 40 35 33 31 32 31
nan nan nan nan nan nan nan nan nan nan nan nan nan nan nan nan nan nan nan nan nan nan nan nan nan 64 61 62 nan 66 61 52 45 37 33 39 48 45 40 35 35 34 32
nan nan nan nan nan nan nan nan nan nan nan nan nan nan nan nan nan nan nan nan nan nan nan nan nan nan nan 58 61 68 67 55 60 40 40 39 44 42 42 40 39 39 40
nan nan nan nan nan nan nan nan nan nan nan nan nan nan nan nan nan nan nan nan nan nan nan nan nan nan nan 55 63 67 nan nan nan 74 71 66 68 67 62 68 64 66 66
nan nan nan nan nan nan nan nan nan nan nan nan nan nan nan nan nan nan nan nan nan nan nan nan nan nan nan nan nan nan nan nan nan nan 90 86 79 87 90 91 87 82 79
nan nan nan nan nan nan nan nan nan nan nan nan nan nan nan nan nan nan nan nan nan nan nan nan nan nan nan nan nan nan nan nan nan nan nan nan 81 nan 93 93 93 89 87
nan nan nan nan nan nan nan nan nan nan nan nan nan nan nan nan nan nan nan nan nan nan nan nan nan nan nan nan nan nan nan nan nan nan nan nan nan nan 88 87 97 98 91
nan nan nan nan nan nan nan nan nan nan nan nan nan nan nan nan nan nan nan nan nan nan nan nan nan nan nan nan nan nan nan nan nan nan nan nan nan nan 75 80 87 94 87
nan nan nan nan nan nan nan nan nan nan nan nan nan nan nan nan nan nan nan nan nan nan nan nan nan nan nan nan nan nan nan nan nan nan nan nan nan nan nan nan nan nan nan
nan nan nan nan nan nan nan nan nan nan nan nan nan nan nan nan nan nan nan nan nan nan nan nan nan nan nan nan nan nan nan nan nan nan nan nan nan nan nan nan nan nan nan
nan nan nan nan nan nan nan nan nan nan nan nan nan nan nan nan nan nan nan nan nan nan nan nan nan nan nan nan nan nan nan nan nan nan nan nan nan nan nan nan nan nan nan
nan nan nan nan nan nan nan nan nan nan nan nan nan nan nan nan nan nan nan nan nan nan nan nan nan nan nan nan nan nan nan nan nan nan nan nan nan nan nan nan nan nan nan
nan nan nan nan nan nan nan nan nan nan nan nan nan nan nan nan nan nan nan nan nan nan nan nan nan nan nan nan nan nan nan nan nan nan nan nan nan nan nan nan nan nan nan
nan nan nan nan nan nan nan nan nan nan nan nan nan nan nan nan nan nan nan nan nan nan nan nan nan nan nan nan nan nan nan nan nan nan nan nan nan nan nan nan nan nan nan
Wind_Direction
nan nan nan nan nan nan nan nan nan nan nan nan 277 278 279 283 289 285 291 289 307 299 307 307 305 305 303 302 305 306 312 314 317 317 318 nan nan nan nan 315 314 279 265
nan nan nan nan nan nan nan nan nan nan nan nan nan nan 279 275 278 286 282 283 309 299 298 302 302 303 301 300 302 307 312 315 321 318 320 nan nan nan nan 318 301 304 294
nan nan nan nan nan nan nan nan nan nan nan nan nan nan nan 281 278 279 281 278 276 304 302 299 309 298 300 299 300 305 308 312 316 320 320 nan nan nan nan nan nan 284 294
nan nan nan nan nan nan nan nan nan nan nan nan nan nan nan nan 274 272 272 276 274 271 288 298 295 302 293 299 299 301 306 308 313 317 320 nan nan nan nan 298 nan 289 296
nan nan nan nan nan nan nan nan nan nan nan nan nan nan nan nan nan 269 269 265 271 270 265 286 292 288 292 292 297 301 303 307 309 311 317 318 311 304 301 301 nan 289 288
nan nan nan nan nan nan nan nan nan nan nan nan nan nan nan nan nan nan nan 263 262 267 267 268 275 274 286 290 287 291 298 299 305 308 308 315 314 310 300 nan nan 300 298
nan nan nan nan nan nan nan nan nan nan nan nan nan nan nan nan nan nan nan nan nan 261 262 259 259 264 264 282 284 283 287 290 293 303 304 304 307 308 nan nan nan nan 301
nan nan nan nan nan nan nan nan nan nan nan nan nan nan nan nan nan nan nan nan nan 258 255 255 257 259 258 264 270 281 282 282 282 288 296 297 297 nan nan nan nan nan nan
nan nan nan nan nan nan nan nan nan nan nan nan nan nan nan nan nan nan nan nan nan 253 253 248 251 249 253 258 268 266 263 273 283 282 287 291 294 294 nan nan nan nan nan
nan nan nan nan nan nan nan nan nan nan nan nan nan nan nan nan nan nan nan nan nan 244 249 249 247 248 248 234 236 243 253 256 261 277 285 287 290 292 nan nan nan nan nan
nan nan nan nan nan nan nan nan nan nan nan nan nan nan nan nan nan nan nan nan nan nan nan 244 247 248 251 nan 265 232 231 252 261 259 270 277 283 288 290 nan nan nan nan
nan nan nan nan nan nan nan nan nan nan nan nan nan nan nan nan nan nan nan nan nan nan nan nan 245 244 249 252 nan nan 240 248 264 270 263 269 275 280 281 283 287 292 nan
nan nan nan nan nan nan nan nan nan nan nan nan nan nan nan nan nan nan nan nan nan nan nan nan 238 239 242 246 nan nan 262 272 269 278 271 266 271 274 274 275 277 283 290
nan nan nan nan nan nan nan nan nan nan nan nan nan nan nan nan nan nan nan nan nan nan nan nan nan 238 235 239 nan 242 245 241 253 244 254 265 274 267 264 268 272 276 279
nan nan nan nan nan nan nan nan nan nan nan nan nan nan nan nan nan nan nan nan nan nan nan nan nan nan nan 237 235 240 237 243 251 233 245 247 251 249 254 262 264 266 270
nan nan nan nan nan nan nan nan nan nan nan nan nan nan nan nan nan nan nan nan nan nan nan nan nan nan nan 241 235 235 nan nan nan 239 248 249 249 249 248 244 245 242 247
nan nan nan nan nan nan nan nan nan nan nan nan nan nan nan nan nan nan nan nan nan nan nan nan nan nan nan nan nan nan nan nan nan nan 239 246 249 251 252 250 246 245 240
nan nan nan nan nan nan nan nan nan nan nan nan nan nan nan nan nan nan nan nan nan nan nan nan nan nan nan nan nan nan nan nan nan nan nan nan 240 nan 251 252 248 245 243
nan nan nan nan nan nan nan nan nan nan nan nan nan nan nan nan nan nan nan nan nan nan nan nan nan nan nan nan nan nan nan nan nan nan nan nan nan nan 248 248 250 247 245
nan nan nan nan nan nan nan nan nan nan nan nan nan nan nan nan nan nan nan nan nan nan nan nan nan nan nan nan nan nan nan nan nan nan nan nan nan nan 236 243 247 245 245
nan nan nan nan nan nan nan nan nan nan nan nan nan nan nan nan nan nan nan nan nan nan nan nan nan nan nan nan nan nan nan nan nan nan nan nan nan nan nan nan nan nan nan
nan nan nan nan nan nan nan nan nan nan nan nan nan nan nan nan nan nan nan nan nan nan nan nan nan nan nan nan nan nan nan nan nan nan nan nan nan nan nan nan nan nan nan
nan nan nan nan nan nan nan nan nan nan nan nan nan nan nan nan nan nan nan nan nan nan nan nan nan nan nan nan nan nan nan nan nan nan nan nan nan nan nan nan nan nan nan
nan nan nan nan nan nan nan nan nan nan nan nan nan nan nan nan nan nan nan nan nan nan nan nan nan nan nan nan nan nan nan nan nan nan nan nan nan nan nan nan nan nan nan
nan nan nan nan nan nan nan nan nan nan nan nan nan nan nan nan nan nan nan nan nan nan nan nan nan nan nan nan nan nan nan nan nan nan nan nan nan nan nan nan nan nan nan
nan nan nan nan nan nan nan nan nan nan nan nan nan nan nan nan nan nan nan nan nan nan nan nan nan nan nan nan nan nan nan nan nan nan nan nan nan nan nan nan nan nan nan